Wind_Speed
25 23 19 15 12 10 9 8 7 6 7 8 10 11 13 14 14 15 16 16 17 17 18 18 18 19 19 19 20 21 20 20 20 21 20 22 21 20 21 21 21 20 21
21 17 13 9 8 6 6 7 8 8 8 9 9 10 11 11 13 13 13 14 15 15 15 15 15 15 15 16 16 15 14 15 15 16 16 15 14 14 15 18 21 22 22
17 13 8 7 7 7 7 8 8 8 8 9 10 10 12 13 14 14 14 15 16 17 16 15 15 16 16 16 16 17 16 17 16 17 16 15 16 18 20 22 25 26 26
13 9 6 6 7 8 8 10 10 9 10 11 11 13 14 15 16 17 18 17 18 18 18 17 16 15 15 15 15 16 16 16 17 19 18 16 18 23 24 25 23 22 22
10 8 6 6 8 10 11 10 11 14 15 15 15 15 16 16 17 17 16 17 18 19 19 19 18 18 17 15 15 15 16 17 18 19 19 20 22 23 23 24 24 22 21
8 6 5 8 10 11 12 13 15 14 14 14 15 17 18 18 18 19 19 18 18 19 20 21 21 21 20 19 19 19 18 18 20 22 21 21 23 22 22 22 24 21 16
6 4 7 11 11 11 11 12 12 13 14 17 18 19 20 20 20 20 20 20 20 21 22 21 21 21 20 20 19 19 19 20 21 22 22 23 24 24 22 22 21 20 20
3 6 9 10 10 10 9 9 10 12 15 16 18 19 19 20 20 20 20 21 21 21 21 21 21 21 21 21 21 22 23 23 23 24 25 26 26 26 26 25 24 21 18
6 6 7 8 8 8 8 10 12 13 15 16 17 18 19 20 21 21 21 21 20 20 21 22 22 23 23 23 24 24 23 23 24 26 27 28 26 25 27 26 24 22 18
6 7 6 7 6 7 9 11 13 14 15 17 19 20 22 22 22 22 22 22 21 22 23 23 24 26 27 27 26 25 26 25 25 26 28 30 27 26 25 27 25 23 20
6 5 5 4 7 9 11 15 15 16 18 20 21 22 22 23 23 24 25 25 24 25 25 26 27 28 28 27 27 27 27 26 26 27 28 31 28 27 25 23 23 21 18
4 3 4 5 7 10 13 13 14 17 19 20 20 21 21 23 25 25 24 25 25 27 28 27 27 27 29 28 27 27 27 27 27 27 28 29 25 25 27 24 21 18 16
3 3 4 5 6 9 10 11 14 15 16 19 21 22 23 25 25 25 25 25 26 27 27 28 29 28 27 27 27 26 27 27 27 27 30 26 25 27 25 21 19 15 12
2 2 4 5 7 7 8 11 14 16 18 21 23 25 26 25 25 26 28 28 28 28 28 28 26 25 25 27 27 27 28 29 29 30 27 24 24 24 22 18 13 11 10
2 1 2 4 5 6 8 12 14 16 18 20 23 27 28 26 27 29 30 31 29 29 30 28 25 25 25 25 26 28 29 30 29 27 26 26 23 19 17 14 11 9 8
2 2 4 5 6 8 10 12 14 15 18 21 22 25 29 30 29 28 27 30 28 27 29 30 29 28 29 30 30 30 31 29 30 27 27 28 20 15 13 12 10 8 6
2 1 3 4 7 10 12 14 14 16 18 21 21 23 26 29 28 30 28 28 29 28 28 30 30 30 30 30 31 32 33 29 31 27 29 26 17 12 12 10 8 7 6
3 1 2 4 7 11 13 15 15 17 19 21 22 22 26 27 29 27 29 27 26 27 29 31 32 32 32 31 31 33 32 29 30 28 27 24 17 11 9 8 6 5 5
2 1 0 5 9 12 13 14 17 18 21 20 21 24 27 27 28 24 24 24 28 29 30 31 33 34 33 32 32 33 32 31 33 29 26 21 15 10 7 6 5 5 4
2 2 2 5 9 12 15 15 18 18 22 22 23 25 27 28 32 27 24 20 25 29 31 32 34 35 35 34 34 35 32 33 32 27 21 17 13 9 6 6 6 4 4
3 1 4 7 10 13 15 17 20 21 24 23 22 26 27 29 26 27 27 19 25 25 26 31 33 36 36 36 36 36 34 34 29 25 20 15 11 8 8 8 7 6 6
3 1 5 8 11 15 17 20 23 23 25 24 24 27 29 30 25 30 29 32 24 25 27 26 30 35 36 38 37 37 35 31 29 25 21 14 10 8 8 8 8 8 7
3 4 8 11 12 16 19 22 23 24 25 28 28 29 30 30 31 28 24 30 25 23 23 23 27 32 34 35 36 35 34 30 32 25 21 14 11 10 10 10 10 10 12
3 5 10 12 15 18 20 23 26 27 29 30 29 30 32 35 33 32 28 23 20 20 22 23 24 29 32 33 33 32 30 28 33 25 21 19 17 16 15 14 14 16 19
6 9 11 14 18 23 27 31 32 31 32 32 33 31 29 27 25 24 24 20 19 19 19 22 22 25 28 30 30 28 26 25 26 26 21 18 16 18 19 16 18 21 22
8 10 13 18 22 27 31 32 30 31 31 30 27 26 25 23 22 20 20 18 18 18 18 19 20 24 25 27 27 26 25 22 21 19 18 15 15 17 18 20 22 20 18
Wind_Direction
328 323 321 321 327 339 354 10 21 17 8 356 350 347 340 337 333 332 333 335 333 329 326 324 322 320 317 312 309 309 311 314 316 318 315 307 302 304 307 308 308 306 302
328 328 333 349 13 29 39 42 35 27 18 15 3 353 348 351 352 351 353 354 356 356 353 347 341 337 333 333 332 329 326 323 320 320 326 328 323 313 307 306 306 307 303
331 338 348 19 38 49 50 45 37 32 35 37 34 29 26 22 15 10 5 1 357 353 352 346 339 335 333 329 325 322 322 321 320 317 316 314 311 309 308 305 303 301 299
335 354 13 51 61 54 54 59 58 50 42 34 29 29 27 23 17 15 8 3 358 352 349 348 344 340 337 334 332 328 323 320 317 313 315 304 306 306 307 308 306 308 303
336 7 20 46 65 73 65 46 44 36 29 23 23 24 27 21 11 12 9 4 359 354 352 349 346 345 343 341 338 332 330 329 327 328 324 319 313 312 309 308 312 317 317
332 352 28 56 62 55 40 36 27 23 20 20 21 21 17 17 10 7 2 1 357 353 354 352 349 347 347 349 349 348 345 342 337 337 332 328 327 328 326 320 316 316 318
332 9 64 59 51 47 43 36 28 22 18 18 16 15 11 9 5 3 359 356 356 355 353 349 347 345 345 345 345 344 341 336 334 332 333 331 327 324 328 325 319 313 312
353 76 60 60 50 34 29 33 37 31 23 17 12 9 5 3 2 1 359 357 354 352 346 344 343 341 340 340 341 342 339 337 337 338 334 335 332 328 327 327 322 312 308
106 86 75 61 54 47 32 35 36 28 19 12 10 6 4 3 2 359 356 353 350 348 345 344 343 341 340 340 338 337 336 335 336 335 333 335 331 328 324 324 326 316 309
118 96 75 63 54 48 40 38 35 27 16 10 7 5 4 1 358 354 354 353 349 348 346 343 341 338 337 338 338 336 334 332 331 329 329 331 328 327 322 319 322 324 309
123 104 83 62 53 42 33 28 21 16 13 10 7 4 1 358 355 354 352 349 348 345 341 339 338 338 340 338 334 334 331 331 330 329 327 328 325 321 319 316 317 318 315
123 108 79 50 41 39 31 22 15 13 10 6 4 3 2 1 359 356 352 347 344 343 343 342 338 336 335 335 333 333 333 329 329 327 324 325 321 317 317 316 312 313 313
98 66 32 24 31 35 26 22 15 13 7 6 6 5 5 3 358 355 353 352 350 348 346 342 340 338 337 336 337 336 332 330 330 328 329 329 326 327 328 325 317 314 313
85 55 35 23 26 22 18 20 14 9 8 7 6 6 7 2 356 355 356 355 355 351 347 346 344 344 344 342 339 339 338 336 335 333 333 332 328 330 335 333 327 318 314
96 26 22 22 21 13 13 14 10 5 4 5 8 7 8 5 5 3 3 2 358 353 354 349 348 347 347 346 345 344 343 341 339 338 337 335 331 332 339 340 338 335 335
147 83 49 23 10 13 14 9 4 0 358 5 11 13 13 15 11 7 4 3 358 352 348 353 356 354 352 351 349 348 347 345 346 345 344 342 339 340 345 348 350 355 353
188 111 44 15 17 13 6 1 1 356 358 3 5 5 4 9 10 10 6 0 358 355 352 357 359 357 356 354 351 349 349 350 349 344 347 345 344 343 344 346 360 6 12
246 230 40 352 16 12 6 359 353 353 357 4 4 5 5 3 7 7 6 4 0 360 359 3 1 360 358 356 353 351 351 351 349 346 345 347 346 341 337 343 1 9 15
259 278 345 10 9 4 0 358 354 348 346 352 1 1 360 0 360 3 1 4 4 3 4 6 5 2 0 358 355 354 353 350 348 344 344 348 349 345 342 353 7 17 27
259 290 345 356 353 349 350 350 353 348 349 350 355 351 355 356 356 358 358 350 354 356 358 1 3 3 1 359 357 356 355 351 349 348 350 356 3 15 21 16 20 30 47
241 277 346 348 345 342 345 350 346 343 340 340 341 342 345 349 339 357 348 347 350 344 350 351 353 359 360 359 359 359 356 356 359 2 3 9 21 33 36 43 48 63 74
210 312 348 346 343 345 345 348 344 340 337 340 342 347 346 349 327 344 342 345 339 343 348 347 350 356 358 359 360 359 360 3 7 9 9 15 27 35 42 52 65 74 77
237 334 351 346 341 348 356 356 352 348 342 341 340 334 336 337 330 331 334 333 335 334 348 343 347 354 356 360 360 359 5 10 6 9 17 30 38 50 63 71 74 81 91
296 322 325 343 1 356 352 350 348 345 342 339 334 330 331 330 334 336 335 342 341 341 352 348 343 350 354 360 1 3 13 15 19 25 38 48 63 75 78 78 84 93 98
306 328 351 353 351 350 348 345 341 338 335 332 330 330 331 334 332 330 334 342 343 339 340 348 354 356 356 1 1 5 13 16 19 28 34 48 69 78 73 70 91 93 92
314 340 343 342 345 342 337 334 333 332 331 333 335 335 336 338 337 338 338 335 341 324 327 341 0 0 358 2 2 7 15 18 20 28 34 54 69 86 69 94 90 85 76
Height
3104 3099 3095 3090 3086 3082 3079 3076 3074 3073 3072 3070 3068 3065 3063 3060 3057 3054 3052 3048 3045 3042 3038 3034 3030 3027 3023 3020 3017 3014 3011 3008 3005 3001 2998 2995 2993 2991 2989 2986 2984 2982 2980
3101 3097 3092 3089 3086 3083 3081 3079 3077 3075 3073 3071 3069 3066 3064 3061 3058 3055 3051 3048 3044 3040 3037 3033 3029 3025 3021 3018 3014 3012 3009 3006 3003 3000 2997 2994 2991 2989 2987 2984 2981 2978 2975
3099 3095 3092 3089 3086 3084 3082 3080 3079 3077 3075 3073 3070 3067 3064 3061 3058 3055 3051 3047 3044 3040 3036 3032 3029 3025 3021 3017 3014 3011 3007 3004 3001 2998 2995 2992 2989 2986 2983 2980 2976 2972 2968
3097 3094 3091 3089 3087 3085 3084 3083 3081 3079 3076 3073 3071 3067 3064 3061 3057 3054 3050 3046 3043 3039 3035 3031 3028 3024 3020 3016 3013 3009 3005 3001 2998 2994 2991 2988 2985 2981 2976 2972 2969 2965 2961
3097 3094 3092 3089 3087 3086 3085 3084 3081 3078 3076 3073 3070 3067 3064 3060 3058 3054 3051 3047 3043 3039 3035 3031 3027 3023 3019 3015 3011 3007 3003 2999 2996 2992 2988 2984 2980 2976 2971 2966 2962 2959 2955
3097 3094 3092 3090 3089 3088 3086 3084 3081 3079 3077 3074 3071 3067 3064 3061 3057 3054 3050 3046 3042 3038 3034 3030 3026 3021 3017 3013 3009 3005 3001 2997 2993 2989 2985 2980 2975 2971 2966 2962 2957 2954 2953
3097 3095 3094 3092 3091 3089 3087 3085 3083 3081 3078 3075 3071 3068 3065 3061 3058 3054 3050 3046 3041 3037 3033 3029 3025 3021 3017 3013 3009 3004 3000 2995 2991 2986 2981 2977 2972 2967 2963 2959 2955 2951 2948
3097 3097 3095 3093 3092 3091 3090 3087 3085 3082 3079 3076 3072 3069 3066 3062 3058 3054 3049 3045 3041 3037 3033 3029 3025 3020 3016 3012 3007 3002 2998 2993 2988 2983 2978 2973 2967 2962 2958 2954 2950 2946 2944
3099 3098 3096 3095 3094 3093 3091 3089 3086 3083 3080 3077 3074 3070 3066 3062 3057 3053 3049 3045 3041 3037 3033 3028 3023 3019 3014 3010 3005 3000 2995 2990 2985 2980 2975 2969 2964 2959 2954 2950 2946 2942 2939
3100 3099 3098 3097 3096 3094 3092 3090 3087 3084 3082 3078 3074 3070 3066 3062 3058 3054 3050 3045 3040 3036 3032 3027 3022 3016 3011 3006 3002 2997 2992 2987 2983 2977 2972 2966 2960 2955 2950 2945 2941 2938 2934
3101 3101 3100 3099 3097 3095 3093 3089 3087 3085 3082 3078 3074 3071 3067 3063 3058 3053 3049 3044 3039 3034 3029 3024 3019 3013 3008 3003 2998 2993 2988 2983 2978 2973 2967 2962 2956 2950 2946 2942 2937 2933 2930
3103 3103 3101 3100 3098 3095 3093 3091 3088 3085 3082 3079 3075 3072 3067 3063 3058 3053 3048 3043 3038 3032 3027 3021 3016 3010 3005 3000 2995 2990 2984 2979 2974 2969 2963 2957 2951 2946 2940 2936 2932 2929 2926
3104 3104 3102 3101 3099 3096 3095 3092 3089 3086 3084 3080 3077 3072 3068 3063 3058 3054 3048 3043 3037 3031 3025 3019 3013 3008 3003 2997 2992 2987 2981 2975 2970 2964 2958 2952 2946 2940 2934 2930 2926 2924 2923
3105 3104 3103 3102 3100 3098 3096 3093 3090 3087 3084 3081 3077 3072 3067 3063 3058 3053 3047 3041 3036 3029 3024 3018 3012 3007 3001 2995 2989 2984 2977 2971 2965 2959 2953 2947 2942 2936 2931 2926 2923 2921 2920
3106 3105 3104 3102 3101 3099 3096 3093 3090 3087 3084 3081 3077 3072 3067 3062 3056 3051 3045 3040 3034 3028 3022 3017 3011 3005 3000 2994 2988 2981 2974 2968 2961 2955 2949 2943 2937 2933 2929 2924 2921 2919 2918
3106 3106 3104 3103 3102 3099 3097 3094 3091 3088 3084 3081 3077 3073 3067 3062 3057 3051 3046 3041 3035 3028 3022 3016 3009 3003 2997 2990 2984 2978 2972 2964 2958 2951 2946 2939 2934 2930 2927 2924 2921 2919 2917
3106 3105 3103 3103 3101 3098 3096 3094 3091 3088 3084 3080 3076 3072 3068 3063 3058 3053 3046 3040 3034 3028 3022 3016 3009 3003 2996 2990 2983 2976 2968 2962 2956 2949 2943 2937 2932 2929 2926 2923 2921 2919 2918
3105 3103 3103 3102 3100 3097 3095 3092 3090 3087 3083 3080 3076 3072 3068 3063 3058 3053 3047 3041 3035 3028 3022 3016 3009 3003 2996 2989 2982 2974 2967 2961 2954 2947 2941 2935 2930 2928 2925 2923 2922 2920 2919
3105 3104 3103 3101 3099 3097 3094 3092 3089 3086 3083 3079 3075 3071 3067 3062 3057 3052 3047 3042 3036 3029 3023 3017 3010 3003 2996 2989 2982 2974 2966 2959 2952 2945 2939 2933 2929 2926 2924 2923 2922 2921 2919
3104 3103 3102 3101 3099 3097 3094 3091 3088 3085 3082 3077 3073 3069 3066 3061 3056 3051 3046 3041 3036 3030 3024 3018 3011 3003 2996 2989 2981 2973 2965 2958 2950 2942 2936 2932 2929 2926 2925 2923 2922 2921 2921
3103 3103 3102 3100 3098 3096 3093 3090 3087 3083 3080 3076 3072 3068 3064 3060 3054 3050 3045 3040 3035 3029 3024 3018 3011 3004 2996 2989 2981 2973 2964 2957 2948 2942 2936 2933 2930 2928 2926 2925 2924 2923 2923
3103 3102 3101 3099 3097 3095 3092 3089 3085 3081 3077 3074 3069 3066 3061 3057 3051 3047 3042 3038 3033 3027 3022 3017 3011 3004 2996 2988 2980 2973 2965 2957 2950 2943 2938 2934 2932 2930 2929 2928 2927 2926 2925
3102 3101 3100 3098 3095 3093 3091 3088 3084 3079 3075 3070 3066 3062 3058 3053 3048 3043 3039 3034 3029 3025 3020 3016 3011 3005 2998 2990 2982 2974 2966 2959 2952 2945 2940 2937 2935 2933 2932 2931 2930 2929 2929
3101 3100 3099 3097 3095 3093 3089 3086 3081 3077 3072 3067 3063 3058 3054 3049 3043 3039 3035 3031 3026 3023 3019 3015 3010 3005 2998 2991 2984 2977 2970 2963 2957 2950 2946 2942 2939 2938 2937 2936 2935 2934 2934
3101 3100 3098 3096 3093 3090 3086 3082 3078 3073 3069 3064 3059 3054 3049 3045 3040 3035 3031 3027 3024 3021 3018 3014 3009 3005 2999 2993 2986 2980 2974 2968 2963 2958 2953 2949 2946 2945 2944 2942 2941 2941 2942
3101 3099 3097 3095 3091 3087 3083 3079 3075 3071 3066 3061 3056 3051 3046 3042 3037 3032 3028 3025 3022 3019 3016 3013 3010 3005 3000 2994 2989 2982 2977 2972 2967 2963 2959 2956 2953 2951 2950 2949 2949 2949 2949